AU298 Weather Reports


time (UTC)temp
F
wind
direction
speed
knots
gust
knots
rain 1hr
in
rain 24hr
in
rain mn
in
humidity
%
barometer
mb
20260504012012 57 141 0.9 0.9 0.00 0.00 0.00 40 1001.3
20260504011012 57 151 0.0 0.0 0.00 0.00 0.00 39 1001.4
20260504010512 57 183 1.7 0.9 0.00 0.00 0.00 39 1001.5
20260504010012 58 156 0.9 0.9 0.00 0.00 0.00 38 1001.7
20260504005512 58 207 0.9 0.9 0.00 0.00 0.00 37 1001.7
20260504005012 58 144 0.9 0.9 0.00 0.00 0.00 37 1001.8
20260504004512 59 225 2.6 0.9 0.00 0.00 0.00 37 1002.0
20260504004012 59 190 3.5 0.9 0.00 0.00 0.00 38 1002.0
20260504003512 59 231 1.7 0.9 0.00 0.00 0.00 37 1002.2
20260504003012 59 208 0.9 0.9 0.00 0.00 0.00 37 1002.3
20260504002012 59 232 1.7 0.9 0.00 0.00 0.00 36 1002.4
20260504001512 60 263 2.6 0.9 0.00 0.00 0.00 35 1002.6
20260504001012 60 274 3.5 0.9 0.00 0.00 0.00 36 1002.6
20260504000512 60 217 0.9 0.9 0.00 0.00 0.00 36 1002.6
20260504000012 60 298 2.6 0.9 0.00 0.00 0.00 36 1002.7
20260503235512 59 230 6.1 0.9 0.00 0.00 0.00 37 1002.8
20260503235012 59 289 4.3 0.9 0.00 0.00 0.00 39 1002.9
20260503234511 59 267 4.3 0.9 0.00 0.00 0.00 38 1002.8
20260503233512 60 302 2.6 0.9 0.00 0.00 0.00 37 1003.1
20260503233012 60 294 3.5 0.9 0.00 0.00 0.00 38 1003.1
20260503232512 60 273 4.3 0.9 0.00 0.00 0.00 37 1003.3
20260503232011 60 298 3.5 0.9 0.00 0.00 0.00 36 1003.4
20260503231512 61 287 6.1 0.9 0.00 0.00 0.00 36 1003.4
20260503231012 61 243 1.7 0.9 0.00 0.00 0.00 35 1003.5
20260503230012 60 274 3.5 0.9 0.00 0.00 0.00 38 1003.6
20260503225513 60 319 6.1 0.9 0.00 0.00 0.00 38 1003.7
20260503224512 59 275 5.2 0.9 0.00 0.00 0.00 38 1003.7
20260503224012 59 295 8.7 0.9 0.00 0.00 0.00 39 1003.9
20260503223512 59 314 7.0 0.9 0.00 0.00 0.00 38 1003.9
20260503223012 60 244 10.4 0.9 0.00 0.00 0.00 36 1003.8
20260503222512 61 228 7.0 1.7 0.00 0.00 0.00 35 1003.9
20260503222012 61 269 6.1 1.7 0.00 0.00 0.00 34 1004.0
20260503221511 61 326 1.7 0.9 0.00 0.00 0.00 35 1004.0
20260503220512 60 239 9.6 0.9 0.00 0.00 0.00 34 1004.3
20260503220012 60 288 3.5 0.9 0.00 0.00 0.00 35 1004.3
20260503215511 60 325 7.0 0.9 0.00 0.00 0.00 37 1004.3
20260503214012 59 295 6.1 1.7 0.00 0.00 0.00 35 1004.3
20260503213511 60 282 7.0 1.7 0.00 0.00 0.00 35 1004.5
20260503213011 59 326 7.8 1.7 0.00 0.00 0.00 35 1004.7
20260503212512 59 310 7.0 1.7 0.00 0.00 0.00 35 1004.7
20260503212012 59 307 7.8 1.7 0.00 0.00 0.00 35 1004.6
20260503211511 59 298 3.5 0.9 0.00 0.00 0.00 36 1004.7
20260503211012 59 275 8.7 1.7 0.00 0.00 0.00 35 1004.8
20260503210512 59 326 11.3 1.7 0.00 0.00 0.00 34 1004.7
20260503210012 59 249 2.6 1.7 0.00 0.00 0.00 36 1004.8
20260503205511 59 292 11.3 1.7 0.00 0.00 0.00 37 1004.9
20260503205012 58 328 7.8 1.7 0.00 0.00 0.00 36 1004.9
20260503204012 58 312 9.6 1.7 0.00 0.00 0.00 36 1005.1
20260503203012 58 259 13.9 1.7 0.00 0.00 0.00 36 1005.1
20260503202011 58 256 5.2 1.7 0.00 0.00 0.00 34 1005.4
20260503201512 58 214 5.2 1.7 0.00 0.00 0.00 35 1005.2
20260503200512 58 293 10.4 1.7 0.00 0.00 0.00 34 1005.5
20260503200012 58 252 4.3 1.7 0.00 0.00 0.00 35 1005.7
20260503195012 57 304 3.5 0.9 0.00 0.00 0.00 36 1005.7
20260503194511 58 281 11.3 0.9 0.00 0.00 0.00 35 1005.8
20260503194011 58 290 3.5 1.7 0.00 0.00 0.00 33 1005.9
20260503193512 57 326 6.1 0.9 0.00 0.00 0.00 33 1005.9
20260503193012 58 302 6.1 0.9 0.00 0.00 0.00 32 1006.1
20260503192512 57 264 6.1 0.9 0.00 0.00 0.00 35 1005.9
20260503192013 57 251 7.0 0.9 0.00 0.00 0.00 34 1006.0
20260503191511 57 305 5.2 1.7 0.00 0.00 0.00 34 1006.1
20260503191011 57 283 2.6 1.7 0.00 0.00 0.00 33 1006.2
20260503190511 57 325 4.3 1.7 0.00 0.00 0.00 35 1006.2
20260503190011 56 286 7.0 1.7 0.00 0.00 0.00 31 1006.4
20260503185012 56 13 3.5 1.7 0.00 0.00 0.00 32 1006.5
20260503184512 56 326 5.2 1.7 0.00 0.00 0.00 37 1006.6
20260503184012 55 300 6.1 1.7 0.00 0.00 0.00 31 1006.6
20260503183512 55 340 11.3 1.7 0.00 0.00 0.00 31 1006.7
20260503183011 56 291 11.3 1.7 0.00 0.00 0.00 31 1006.7
20260503182511 55 326 5.2 1.7 0.00 0.00 0.00 29 1006.7
20260503182012 56 323 7.8 1.7 0.00 0.00 0.00 30 1006.7
20260503181512 55 281 13.9 1.7 0.00 0.00 0.00 28 1006.8
20260503181013 54 312 7.8 1.7 0.00 0.00 0.00 28 1006.9
20260503180512 54 337 8.7 1.7 0.00 0.00 0.00 29 1006.8
20260503180011 54 281 7.0 1.7 0.00 0.00 0.00 26 1006.8
20260503175512 54 276 9.6 1.7 0.00 0.00 0.00 28 1006.9
20260503174512 55 316 6.1 1.7 0.00 0.00 0.00 31 1007.0
20260503174012 54 340 2.6 1.7 0.00 0.00 0.00 30 1007.0
20260503173512 54 290 8.7 1.7 0.00 0.00 0.00 33 1007.1
20260503172512 54 322 5.2 1.7 0.00 0.00 0.00 34 1007.1
20260503172011 55 311 4.3 1.7 0.00 0.00 0.00 36 1007.2
20260503171512 54 330 10.4 1.7 0.00 0.00 0.00 35 1007.1
20260503171012 54 289 1.7 0.9 0.00 0.00 0.00 35 1007.1
20260503170512 55 305 5.2 0.9 0.00 0.00 0.00 34 1007.3
20260503151011 51 326 8.7 1.7 0.00 0.00 0.00 40 1007.4
20260503150512 52 338 4.3 0.9 0.00 0.00 0.00 45 1007.4
20260503131011 46 334 2.6 0.9 0.00 0.00 0.00 81 1007.3
20260503130511 45 329 2.6 0.9 0.00 0.00 0.00 82 1007.3
20260503110512 41 274 0.0 0.0 0.00 0.00 0.00 89 1007.2
20260503090511 43 237 0.0 0.0 0.00 0.00 0.00 87 1008.0
20260503081511 44 237 0.0 0.0 0.00 0.00 0.00 84 1008.2
20260503081011 45 237 0.0 0.0 0.00 0.00 0.00 83 1008.2
20260503080512 45 237 0.0 0.0 0.00 0.00 0.00 83 1008.2
20260503072512 46 188 0.0 0.0 0.00 0.00 0.00 82 1008.6
20260503072012 46 241 0.0 0.0 0.00 0.00 0.00 82 1008.7
20260503071511 46 243 0.0 0.0 0.00 0.00 0.00 82 1008.8
20260503071011 46 243 0.0 0.0 0.00 0.00 0.00 81 1008.7
20260503070511 47 243 0.0 0.0 0.00 0.00 0.00 81 1008.7
20260503054012 48 214 0.0 0.0 0.00 0.00 0.00 78 1009.3
20260503053511 48 208 0.9 0.0 0.00 0.00 0.00 78 1009.3
20260503053012 48 165 0.0 0.0 0.00 0.00 0.00 77 1009.3
20260503052512 48 204 0.9 0.0 0.00 0.00 0.00 77 1009.4
20260503052011 48 214 2.6 0.0 0.00 0.00 0.00 77 1009.4
20260503051511 48 199 0.9 0.0 0.00 0.00 0.00 77 1009.4
20260503051011 49 217 0.9 0.0 0.00 0.00 0.00 76 1008.5
20260503050512 49 198 0.0 0.0 0.00 0.00 0.00 76 1008.6
20260503045011 49 209 0.0 0.0 0.00 0.00 0.00 75 1008.5
20260503044511 49 202 0.0 0.0 0.00 0.00 0.00 75 1008.6
20260503044011 49 195 0.0 0.0 0.00 0.00 0.00 75 1008.8
20260503043511 49 254 0.0 0.0 0.00 0.00 0.00 74 1008.8
20260503043012 49 254 0.0 0.0 0.00 0.00 0.00 74 1008.9
20260503042511 49 254 0.0 0.0 0.00 0.00 0.00 74 1009.0
20260503042011 49 254 0.0 0.0 0.00 0.00 0.00 74 1008.8
20260503041511 49 254 0.0 0.0 0.00 0.00 0.00 74 1009.0
20260503040011 50 288 0.9 0.0 0.00 0.00 0.00 73 1009.2
20260503035011 50 293 0.0 0.0 0.00 0.00 0.00 73 1009.2
20260503034511 50 301 1.7 0.9 0.00 0.00 0.00 72 1009.2
20260503034012 50 264 1.7 0.9 0.00 0.00 0.00 72 1009.4
20260503033512 50 279 0.9 0.9 0.00 0.00 0.00 71 1009.4
20260503033011 50 237 4.3 0.9 0.00 0.00 0.00 71 1009.6
20260503032011 51 212 1.7 0.9 0.00 0.00 0.00 70 1009.5
20260503031511 51 306 4.3 0.9 0.00 0.00 0.00 70 1009.6
20260503031012 51 280 1.7 0.9 0.00 0.00 0.00 70 1009.7
20260503030511 52 262 6.1 0.9 0.00 0.00 0.00 69 1009.8
20260503030012 52 255 2.6 0.9 0.00 0.00 0.00 68 1009.8
20260503025511 52 277 1.7 0.9 0.00 0.00 0.00 68 1009.9
20260503025011 52 264 1.7 0.9 0.00 0.00 0.00 68 1010.0
20260503024011 52 284 1.7 0.9 0.00 0.00 0.00 68 1010.1
20260503022511 53 323 4.3 0.9 0.00 0.00 0.00 64 1010.0
20260503022011 53 239 2.6 1.7 0.00 0.00 0.00 63 1010.0
20260503021011 54 286 3.5 0.9 0.00 0.00 0.00 60 1009.9
20260503020511 54 297 5.2 0.9 0.00 0.00 0.00 58 1009.9
20260503020011 55 283 7.0 0.9 0.00 0.00 0.00 57 1009.8
20260503015511 55 289 3.5 0.9 0.00 0.00 0.00 57 1009.7
20260503015011 55 278 3.5 0.9 0.00 0.00 0.00 56 1009.7
20260503014512 55 268 5.2 0.9 0.00 0.00 0.00 55 1009.7
20260503014011 55 304 2.6 0.9 0.00 0.00 0.00 54 1009.6
20260503013511 56 304 4.3 0.9 0.00 0.00 0.00 53 1009.6
20260503013011 56 261 5.2 0.9 0.00 0.00 0.00 53 1009.5